Main page


Airports :

Abadeh, Iran

Abadeh Airport

latitude: 31-11N, longitude: 052-40E, elevation: 2004 m

Current weather observation

The report was made 1 hour and 46 minutes ago, at 20:00 UTC
Wind 6 kt from the North/Northwest
Temperature 11°C
Humidity 11%
Pressure 1021 hPa
Visibility 10 km or more
no clouds below 1500 m and no cumulonimbus

METAR: OISA 222000Z 34006KT CAVOK 11/M18 Q1021

Time: 02:16 (21:46 UTC)

TAF: missing

Weather observations and forecasts of more than 4000 airports (METAR and TAF reports).

The available stations are represented by yellow and red dots on the map.

Hover mouse over dot to see the name of the station.

Then click to see weather observations and forecasts.

To change the map : click on the green buttons with a black cross to zoom in, on the green button with a dash to zoom out, or on the green arrows for adjacent maps.